Total_Precipitation_Accumulation
0.50 0.50 0.38 0.29 0.28 0.30 0.28 0.27 0.31 0.38 0.40 0.30 0.30 0.38 0.38 0.40 0.47 0.57 0.70 0.80 0.74 0.69 0.62 0.62 0.71 0.80 0.98 1.04 1.01 0.92 0.88 0.82 0.71 0.68 0.49 0.26 0.17 0.15 0.12 0.05 0.02 0.01 0.00
0.50 0.48 0.40 0.33 0.33 0.39 0.38 0.27 0.26 0.28 0.26 0.24 0.27 0.30 0.31 0.36 0.42 0.51 0.62 0.69 0.70 0.64 0.57 0.53 0.58 0.66 0.82 0.98 1.08 1.00 0.93 0.86 0.83 0.80 0.64 0.44 0.31 0.24 0.17 0.10 0.05 0.03 0.02
0.56 0.53 0.47 0.40 0.38 0.38 0.33 0.26 0.24 0.21 0.19 0.21 0.23 0.27 0.28 0.31 0.38 0.43 0.48 0.49 0.45 0.42 0.43 0.42 0.48 0.53 0.62 0.76 0.89 0.98 0.95 0.88 0.91 0.93 0.79 0.59 0.42 0.31 0.24 0.19 0.11 0.09 0.07
0.74 0.66 0.59 0.50 0.44 0.39 0.31 0.24 0.20 0.17 0.16 0.17 0.18 0.19 0.23 0.27 0.31 0.33 0.34 0.39 0.35 0.27 0.24 0.24 0.30 0.34 0.41 0.54 0.68 0.81 0.92 0.95 0.97 0.99 0.91 0.70 0.51 0.37 0.27 0.25 0.25 0.19 0.15
0.83 0.76 0.67 0.63 0.52 0.41 0.35 0.26 0.21 0.16 0.15 0.16 0.22 0.26 0.29 0.30 0.34 0.35 0.30 0.33 0.33 0.28 0.24 0.22 0.19 0.20 0.25 0.35 0.47 0.66 0.79 0.90 0.98 1.02 0.99 0.85 0.68 0.53 0.39 0.33 0.31 0.32 0.28
0.74 0.73 0.71 0.65 0.52 0.44 0.35 0.26 0.21 0.18 0.18 0.20 0.23 0.30 0.38 0.34 0.44 0.44 0.37 0.34 0.32 0.26 0.22 0.24 0.26 0.24 0.18 0.15 0.18 0.30 0.45 0.63 0.79 0.90 0.94 0.85 0.72 0.62 0.55 0.47 0.38 0.31 0.29
0.60 0.62 0.62 0.56 0.43 0.38 0.29 0.24 0.23 0.22 0.22 0.25 0.27 0.34 0.44 0.53 0.50 0.37 0.39 0.37 0.33 0.27 0.21 0.22 0.26 0.26 0.30 0.26 0.22 0.20 0.21 0.30 0.46 0.62 0.70 0.72 0.77 0.66 0.53 0.43 0.36 0.32 0.30
0.45 0.48 0.46 0.46 0.40 0.32 0.25 0.24 0.25 0.24 0.26 0.27 0.29 0.32 0.36 0.48 0.45 0.36 0.47 0.46 0.45 0.40 0.31 0.26 0.27 0.27 0.29 0.39 0.43 0.36 0.31 0.32 0.44 0.36 0.39 0.60 0.65 0.61 0.52 0.45 0.42 0.37 0.29
0.30 0.36 0.39 0.39 0.35 0.30 0.25 0.31 0.36 0.33 0.31 0.30 0.28 0.29 0.32 0.37 0.39 0.33 0.37 0.47 0.54 0.48 0.37 0.33 0.33 0.35 0.47 0.47 0.43 0.43 0.42 0.40 0.59 0.61 0.57 0.54 0.49 0.42 0.40 0.43 0.41 0.36 0.31
0.19 0.24 0.28 0.30 0.34 0.37 0.45 0.52 0.52 0.47 0.40 0.35 0.32 0.29 0.31 0.32 0.40 0.25 0.30 0.41 0.50 0.56 0.50 0.42 0.53 0.50 0.51 0.39 0.29 0.38 0.44 0.45 0.45 0.46 0.46 0.43 0.36 0.32 0.30 0.32 0.40 0.40 0.34
0.04 0.10 0.18 0.29 0.34 0.44 0.55 0.58 0.56 0.50 0.41 0.35 0.33 0.31 0.31 0.37 0.50 0.39 0.38 0.44 0.48 0.55 0.58 0.57 0.54 0.59 0.43 0.31 0.28 0.33 0.44 0.49 0.47 0.50 0.49 0.43 0.34 0.30 0.28 0.28 0.32 0.34 0.34
0.03 0.07 0.13 0.20 0.29 0.42 0.51 0.50 0.49 0.47 0.44 0.39 0.39 0.36 0.38 0.47 0.53 0.49 0.46 0.48 0.47 0.53 0.55 0.48 0.43 0.44 0.31 0.25 0.23 0.28 0.33 0.35 0.36 0.43 0.47 0.44 0.37 0.31 0.28 0.25 0.25 0.25 0.25
0.01 0.02 0.06 0.11 0.22 0.36 0.39 0.39 0.42 0.44 0.43 0.41 0.40 0.37 0.35 0.40 0.49 0.55 0.45 0.37 0.33 0.38 0.40 0.37 0.32 0.28 0.23 0.19 0.19 0.22 0.24 0.30 0.38 0.44 0.43 0.40 0.39 0.36 0.32 0.27 0.22 0.18 0.18
0.00 0.00 0.01 0.02 0.05 0.10 0.15 0.20 0.26 0.31 0.32 0.31 0.34 0.38 0.40 0.40 0.38 0.40 0.40 0.35 0.29 0.28 0.25 0.17 0.17 0.17 0.20 0.22 0.23 0.21 0.23 0.35 0.47 0.50 0.49 0.44 0.43 0.40 0.36 0.33 0.30 0.29 0.28
0.00 0.00 0.01 0.02 0.03 0.04 0.06 0.09 0.12 0.15 0.19 0.24 0.30 0.33 0.34 0.38 0.35 0.35 0.35 0.35 0.39 0.41 0.40 0.28 0.21 0.20 0.20 0.21 0.24 0.27 0.35 0.44 0.52 0.49 0.47 0.43 0.41 0.42 0.40 0.37 0.36 0.35 0.34
0.00 0.00 0.00 0.01 0.01 0.01 0.02 0.03 0.04 0.06 0.09 0.12 0.15 0.18 0.18 0.24 0.30 0.30 0.32 0.33 0.34 0.36 0.40 0.40 0.38 0.39 0.36 0.32 0.31 0.27 0.29 0.36 0.41 0.47 0.46 0.42 0.38 0.37 0.35 0.33 0.34 0.33 0.32
0.00 0.00 0.00 0.01 0.01 0.02 0.03 0.04 0.04 0.03 0.02 0.03 0.05 0.08 0.11 0.11 0.14 0.20 0.25 0.30 0.31 0.32 0.35 0.38 0.39 0.40 0.37 0.32 0.27 0.23 0.21 0.23 0.30 0.38 0.45 0.48 0.47 0.44 0.39 0.34 0.29 0.27 0.27
0.00 0.00 0.01 0.05 0.07 0.04 0.04 0.08 0.10 0.12 0.09 0.04 0.02 0.04 0.05 0.05 0.04 0.05 0.08 0.14 0.16 0.18 0.23 0.27 0.27 0.27 0.26 0.24 0.20 0.17 0.16 0.17 0.18 0.22 0.28 0.36 0.46 0.54 0.54 0.48 0.44 0.38 0.34
0.00 0.01 0.02 0.06 0.07 0.08 0.11 0.12 0.12 0.12 0.11 0.07 0.04 0.02 0.02 0.02 0.02 0.02 0.03 0.06 0.06 0.07 0.09 0.10 0.11 0.11 0.14 0.13 0.11 0.10 0.11 0.13 0.15 0.16 0.17 0.20 0.26 0.36 0.45 0.50 0.53 0.56 0.53
0.00 0.00 0.01 0.03 0.05 0.06 0.08 0.09 0.08 0.07 0.07 0.05 0.04 0.03 0.03 0.03 0.03 0.02 0.02 0.03 0.03 0.03 0.03 0.04 0.05 0.05 0.06 0.07 0.06 0.05 0.05 0.07 0.09 0.10 0.11 0.13 0.15 0.19 0.25 0.33 0.38 0.41 0.43
0.00 0.00 0.00 0.01 0.03 0.03 0.03 0.03 0.04 0.04 0.03 0.02 0.02 0.01 0.02 0.05 0.05 0.04 0.03 0.03 0.03 0.03 0.03 0.03 0.03 0.04 0.05 0.06 0.10 0.12 0.09 0.06 0.07 0.08 0.09 0.10 0.11 0.12 0.15 0.20 0.24 0.27 0.31
0.00 0.00 0.01 0.02 0.04 0.03 0.02 0.02 0.03 0.04 0.03 0.02 0.02 0.01 0.01 0.04 0.05 0.05 0.04 0.03 0.03 0.03 0.03 0.03 0.03 0.04 0.05 0.06 0.10 0.15 0.17 0.14 0.11 0.09 0.10 0.11 0.12 0.12 0.13 0.15 0.17 0.18 0.20
0.00 0.00 0.01 0.02 0.03 0.01 0.01 0.03 0.03 0.03 0.03 0.02 0.02 0.02 0.03 0.04 0.03 0.03 0.03 0.04 0.05 0.06 0.06 0.05 0.04 0.05 0.06 0.07 0.08 0.09 0.10 0.13 0.15 0.15 0.13 0.13 0.14 0.15 0.16 0.17 0.17 0.19 0.20
0.00 0.00 0.01 0.02 0.02 0.02 0.03 0.03 0.03 0.02 0.02 0.02 0.02 0.03 0.04 0.05 0.04 0.03 0.03 0.04 0.05 0.05 0.06 0.05 0.04 0.04 0.05 0.06 0.07 0.08 0.10 0.10 0.09 0.08 0.09 0.10 0.11 0.12 0.14 0.16 0.18 0.19 0.21
0.00 0.00 0.01 0.01 0.01 0.02 0.02 0.03 0.04 0.02 0.02 0.02 0.02 0.02 0.03 0.04 0.05 0.04 0.03 0.03 0.03 0.03 0.03 0.03 0.03 0.05 0.08 0.09 0.09 0.12 0.18 0.17 0.12 0.09 0.09 0.10 0.11 0.13 0.16 0.19 0.23 0.26 0.28
0.00 0.00 0.01 0.01 0.01 0.01 0.02 0.04 0.04 0.04 0.03 0.02 0.03 0.03 0.04 0.04 0.03 0.03 0.03 0.02 0.02 0.02 0.02 0.03 0.03 0.05 0.08 0.09 0.09 0.11 0.14 0.13 0.13 0.12 0.08 0.08 0.10 0.14 0.19 0.21 0.24 0.28 0.34